Time+07,TemperatureF,Dew PointF,Humidity,Sea Level PressureIn,VisibilityMPH,Wind Direction,Wind SpeedMPH,Gust SpeedMPH,PrecipitationIn,Events,Conditions,WindDirDegrees,DateUTC
12:00 AM,78.8,60.8,54,29.86,6.2,NW,8.1,-,N/A,,Mostly Cloudy,310,2013-01-06 17:00:00
12:30 AM,78.8,60.8,54,29.86,6.2,NW,9.2,-,N/A,,Mostly Cloudy,320,2013-01-06 17:30:00
1:00 AM,78,67,60,29.85,5,Calm,Calm,,,,Mist,,2013-01-06 18:00:00
1:00 AM,78.8,60.8,54,29.86,6.2,NNW,8.1,-,N/A,,Mostly Cloudy,330,2013-01-06 18:00:00
1:30 AM,77.0,60.8,57,29.86,6.2,NNW,4.6,-,N/A,,Mostly Cloudy,330,2013-01-06 18:30:00
2:00 AM,75.2,60.8,61,29.83,6.2,Calm,Calm,-,N/A,,Mostly Cloudy,0,2013-01-06 19:00:00
2:30 AM,75.2,60.8,61,29.83,6.2,Calm,Calm,-,N/A,,Mostly Cloudy,0,2013-01-06 19:30:00
3:00 AM,73.4,60.8,65,29.83,6.2,North,3.5,-,N/A,,Mostly Cloudy,10,2013-01-06 20:00:00
3:30 AM,73.4,62.6,69,29.83,6.2,NE,3.5,-,N/A,,Mostly Cloudy,50,2013-01-06 20:30:00
4:00 AM,73.4,64.4,73,29.83,6.2,NNE,3.5,-,N/A,,Mostly Cloudy,30,2013-01-06 21:00:00
4:30 AM,71.6,64.4,78,29.83,6.2,Calm,Calm,-,N/A,,Mostly Cloudy,0,2013-01-06 21:30:00
5:00 AM,73.4,62.6,69,29.86,6.2,NNW,2.3,-,N/A,,Mostly Cloudy,330,2013-01-06 22:00:00
5:30 AM,73.4,62.6,69,29.86,6.2,NW,5.8,-,N/A,,Mostly Cloudy,320,2013-01-06 22:30:00
6:00 AM,73.4,62.6,69,29.86,6.2,NNW,3.5,-,N/A,,Mostly Cloudy,330,2013-01-06 23:00:00
6:30 AM,73.4,62.6,69,29.86,6.2,Calm,Calm,-,N/A,,Mostly Cloudy,0,2013-01-06 23:30:00
7:00 AM,74,63,61,29.86,5,Calm,Calm,,,,Mist,,2013-01-07 00:00:00
7:00 AM,71.6,62.6,73,29.89,6.2,NNW,2.3,-,N/A,,Mostly Cloudy,330,2013-01-07 00:00:00
7:30 AM,75.2,64.4,69,29.89,6.2,NNW,4.6,-,N/A,,Mostly Cloudy,340,2013-01-07 00:30:00
8:00 AM,75.2,62.6,65,29.92,6.2,North,3.5,-,N/A,,Mostly Cloudy,360,2013-01-07 01:00:00
8:30 AM,77.0,62.6,61,29.92,5.6,North,5.8,-,N/A,,Mostly Cloudy,350,2013-01-07 01:30:00
9:00 AM,78.8,62.6,57,29.92,6.2,NNE,4.6,-,N/A,,Mostly Cloudy,20,2013-01-07 02:00:00
9:30 AM,80.6,60.8,51,29.92,6.2,ENE,4.6,-,N/A,,Mostly Cloudy,70,2013-01-07 02:30:00
10:00 AM,82.4,62.6,51,29.92,5.6,ENE,6.9,-,N/A,,Mostly Cloudy,70,2013-01-07 03:00:00
10:30 AM,82.4,62.6,51,29.92,5.6,ENE,8.1,-,N/A,,Unknown,70,2013-01-07 03:30:00
11:00 AM,84.2,62.6,48,29.92,-9999.0,ENE,10.4,-,N/A,,Clear,70,2013-01-07 04:00:00
11:30 AM,86.0,62.6,45,29.89,-9999.0,ENE,6.9,-,N/A,,Clear,70,2013-01-07 04:30:00
12:00 PM,87.8,62.6,43,29.89,-9999.0,East,9.2,20.7,N/A,,Clear,80,2013-01-07 05:00:00
12:30 PM,89.6,62.6,40,29.86,-9999.0,East,8.1,19.6,N/A,,Clear,80,2013-01-07 05:30:00
1:00 PM,93,65,29,29.82,5,NE,3.5,,,,Haze,50,2013-01-07 06:00:00
1:00 PM,89.6,62.6,40,29.86,-9999.0,East,8.1,19.6,N/A,,Clear,80,2013-01-07 06:00:00
1:30 PM,89.6,60.8,38,29.83,-9999.0,East,5.8,17.3,N/A,,Clear,100,2013-01-07 06:30:00
2:00 PM,89.6,60.8,38,29.83,6.2,East,4.6,-,N/A,,Mostly Cloudy,90,2013-01-07 07:00:00
2:30 PM,91.4,60.8,36,29.83,6.2,SE,4.6,-,N/A,,Mostly Cloudy,140,2013-01-07 07:30:00
3:00 PM,91.4,60.8,36,29.80,6.2,East,4.6,-,N/A,,Mostly Cloudy,100,2013-01-07 08:00:00
3:30 PM,91.4,60.8,36,29.80,6.2,East,4.6,-,N/A,,Mostly Cloudy,100,2013-01-07 08:30:00
4:00 PM,91.4,60.8,36,29.80,6.2,East,4.6,-,N/A,,Mostly Cloudy,80,2013-01-07 09:00:00
4:30 PM,89.6,62.6,40,29.80,6.2,East,4.6,-,N/A,,Mostly Cloudy,90,2013-01-07 09:30:00
5:00 PM,89.6,62.6,40,29.80,6.2,East,4.6,-,N/A,,Mostly Cloudy,80,2013-01-07 10:00:00
5:30 PM,87.8,62.6,43,29.83,6.2,NE,3.5,-,N/A,,Mostly Cloudy,50,2013-01-07 10:30:00
6:00 PM,86.0,62.6,45,29.83,5.6,North,3.5,-,N/A,,Mostly Cloudy,10,2013-01-07 11:00:00
6:30 PM,84.2,64.4,51,29.83,5.6,NNW,5.8,-,N/A,,Mostly Cloudy,330,2013-01-07 11:30:00
7:00 PM,84,75,68,29.83,5,Calm,Calm,,,,Mist,,2013-01-07 12:00:00
7:00 PM,84.2,64.4,51,29.86,5.6,NW,6.9,-,N/A,,Mostly Cloudy,320,2013-01-07 12:00:00
7:30 PM,84.2,64.4,51,29.86,5.6,NW,8.1,-,N/A,,Mostly Cloudy,320,2013-01-07 12:30:00
8:00 PM,84.2,64.4,51,29.86,5.6,NW,6.9,-,N/A,,Mostly Cloudy,320,2013-01-07 13:00:00
8:30 PM,82.4,62.6,51,29.89,6.2,NW,6.9,-,N/A,,Mostly Cloudy,310,2013-01-07 13:30:00
9:00 PM,82.4,64.4,54,29.89,6.2,NW,6.9,-,N/A,,Mostly Cloudy,320,2013-01-07 14:00:00
9:30 PM,82.4,62.6,51,29.89,6.2,NNW,6.9,-,N/A,,Mostly Cloudy,330,2013-01-07 14:30:00
10:00 PM,82.4,64.4,54,29.89,6.2,NW,4.6,-,N/A,,Scattered Clouds,310,2013-01-07 15:00:00
10:30 PM,82.4,62.6,51,29.86,6.2,NW,5.8,-,N/A,,Scattered Clouds,310,2013-01-07 15:30:00
11:00 PM,82.4,64.4,54,29.86,-9999.0,NW,5.8,-,N/A,,Clear,310,2013-01-07 16:00:00
11:30 PM,82.4,64.4,54,29.86,-9999.0,NW,4.6,-,N/A,,Clear,320,2013-01-07 16:30:00